Home   Weather   Evansville   Past weeks

Flag for USA Past Weather in Evansville, Indiana, USA — Yesterday and Last 2 Weeks

Now
59 °F

Clear.


Feels Like: 58 °F
Forecast: 52 / 77 °F
Wind: 6 mph from Southwest

Location: Evansville Regional Airport

Current Time: Apr 27, 2017 at 7:31:35 pm

Latest Report: Apr 27, 2017 at 6:54 pm


Visibility: 10 mi

Pressure: 29.82 "Hg

Humidity: 64%

Dew Point: 47 °F

Location of EvansvilleLocation

Past Weather in Evansville — Graph

°F

Evansville Temperature Yesterday

Maximum temperature yesterday: 84 °F (at 3:54 pm)
Minimum temperature yesterday: 62 °F (at 4:54 am)
Average temperature yesterday: 72 °F

High & Low Weather Summary for the Past Weeks

 TemperatureHumidityPressure
High85 °F (Apr 14, 1:54 pm)93% (Apr 16, 8:54 pm)30.32 "Hg (Apr 16, 8:54 pm)
Low47 °F (Apr 22, 4:54 am)24% (Apr 23, 5:54 pm)29.46 "Hg (Apr 27, 1:54 am)
Average65 °F65%29.98 "Hg
* Reported Apr 12 6:54 pm — Apr 27 6:16 pm, Evansville, Weather by CustomWeather, © 2017

Note: Actual official high and low records may vary slightly from our data, if they occured in-between our weather recording intervals... More about our weather records

Advertising

Evansville Weather History for the Previous 24 Hours

Scroll right to see more
 ConditionsComfort  
Time TempWeatherWind HumidityBarometerVisibility
6:16 pm
Thu, Apr 27
59 °FOvercast.8 mph67%29.83 "Hg10 mi
5:54 pm61 °FPartly sunny.10 mph65%29.83 "Hg10 mi
5:26 pm60 °FScattered clouds.7 mph65%29.83 "Hg10 mi
5:16 pm60 °FPartly sunny.9 mph65%29.83 "Hg10 mi
4:54 pm60 °FBroken clouds.10 mph65%29.83 "Hg10 mi
4:19 pm60 °FBroken clouds.9 mph62%29.82 "Hg10 mi
3:54 pm61 °FMostly cloudy.10 mph62%29.80 "Hg10 mi
3:10 pm60 °FMostly cloudy.12 mph62%29.81 "Hg10 mi
3:01 pm61 °FMore clouds than sun.8 mph62%29.81 "Hg10 mi
1:54 pm58 °FMostly cloudy.14 mph67%29.80 "Hg10 mi
1:37 pm57 °FMore clouds than sun.14 mph69%29.80 "Hg10 mi
12:54 pm57 °FOvercast.14 mph67%29.78 "Hg10 mi
11:54 am56 °FOvercast.12 mph70%29.76 "Hg10 mi
10:54 am56 °FOvercast.12 mph70%29.74 "Hg10 mi
9:54 am53 °FMostly cloudy.10 mph77%29.72 "Hg10 mi
8:54 am53 °FOvercast.12 mph80%29.70 "Hg10 mi
7:54 am52 °FOvercast.15 mph83%29.66 "Hg10 mi
6:54 am53 °FFog.9 mph86%29.62 "Hg6 mi
6:33 am53 °FLight rain. Mostly cloudy.9 mph86%29.62 "Hg10 mi
5:54 am54 °FMostly cloudy.10 mph86%29.58 "Hg10 mi
4:54 am62 °FPartly cloudy.14 mph83%29.52 "Hg10 mi
4:29 am62 °FLight rain. Mostly cloudy.13 mph83%29.53 "Hg7 mi
3:54 am62 °FPassing clouds.10 mph83%29.51 "Hg10 mi
2:54 am61 °FMostly cloudy.12 mph87%29.49 "Hg10 mi
1:54 am60 °FLight rain. Partly cloudy.9 mph90%29.46 "Hg10 mi
12:54 am61 °FLight rain. Overcast.N/A90%29.58 "Hg10 mi
12:16 am61 °FRain. Mostly cloudy.No wind90%29.60 "Hg8 mi
12:01 am61 °FThunderstorms. Fog.8 mph90%29.61 "Hg4 mi
10:54 pm
Wed, Apr 26
64 °FLight rain. Overcast.7 mph75%29.56 "Hg10 mi
9:54 pm64 °FMostly cloudy.5 mph75%29.55 "Hg10 mi
8:54 pm67 °FMostly cloudy.10 mph73%29.53 "Hg10 mi
7:54 pm68 °FPassing clouds.No wind70%29.47 "Hg10 mi
Weather by CustomWeather, © 2017

See weather overviewHow to use our weather pages